Wind_Speed
36 35 35 34 33 33 32 32 32 32 32 32 32 32 32 31 29 28 27 26 25 25 24 22 21 20 20 21 21 20 18 17 16 16 15 16 17 18 19 19 18 17
37 36 35 34 33 33 33 33 32 32 33 33 33 32 32 31 30 29 28 27 26 26 25 24 22 21 20 21 21 21 19 18 17 17 16 17 18 18 19 20 19 19
37 36 36 35 35 34 34 33 32 32 32 32 33 32 32 32 31 30 29 28 27 27 26 25 23 22 21 21 21 21 20 19 19 18 18 18 18 19 19 19 20 20
37 37 37 36 36 35 34 32 32 32 32 32 33 33 32 32 31 31 30 29 28 27 27 26 24 23 23 22 21 22 22 21 20 19 19 19 19 20 20 20 20 20
38 37 37 37 36 34 33 33 33 33 33 33 33 32 32 32 32 31 30 30 29 28 28 27 26 25 24 23 23 23 23 22 21 20 21 21 21 21 21 21 21 21
37 38 38 37 36 34 34 34 34 34 33 33 32 32 32 31 32 31 31 30 30 30 29 29 28 27 26 25 24 24 24 24 23 22 22 23 23 22 22 22 23 23
37 38 38 37 36 35 35 35 35 34 33 32 31 31 31 31 32 32 31 30 30 30 30 30 30 29 28 27 26 26 25 25 25 24 24 24 24 24 24 24 25 25
38 38 37 37 35 35 35 35 34 33 33 32 31 32 32 32 32 32 32 31 30 30 30 30 31 30 30 28 28 28 27 26 26 26 26 26 25 26 27 26 27 28
37 37 37 36 36 35 35 35 34 33 32 32 32 32 32 33 33 33 32 32 31 31 31 31 31 31 31 30 30 29 28 28 28 27 27 27 27 28 28 28 28 29
36 36 36 36 36 36 36 35 34 33 32 32 32 32 32 33 33 33 33 32 32 32 32 32 32 31 31 31 31 30 30 29 29 28 29 29 29 29 29 28 29 30
36 35 35 36 36 36 36 36 34 33 33 33 33 32 32 32 32 33 33 33 34 34 33 33 33 32 32 32 32 31 31 31 30 30 30 30 30 30 30 29 29 31
36 35 35 36 37 37 36 36 35 34 34 33 33 33 32 32 32 33 33 34 35 35 34 34 33 33 33 33 32 32 32 32 32 31 31 31 31 31 31 30 30 32
37 37 37 38 38 38 37 37 36 36 35 34 34 33 33 33 33 33 33 35 36 35 35 34 34 33 34 34 33 33 33 33 33 32 32 32 32 32 31 31 31 32
39 39 40 40 39 38 38 37 37 36 36 35 34 34 35 35 34 34 34 35 35 36 35 34 33 34 34 34 34 34 34 34 33 33 32 32 32 32 32 31 32 32
40 39 39 39 37 37 36 36 36 36 36 35 35 35 35 35 34 34 34 34 35 35 34 34 34 35 36 36 36 35 35 35 34 33 32 32 31 31 31 32 32 33
38 37 37 36 36 36 36 37 36 36 35 35 35 35 35 34 33 33 33 34 34 34 34 33 34 36 37 37 37 36 35 35 34 34 33 32 31 31 31 31 31 32
36 36 35 35 36 36 36 37 36 35 35 35 35 35 34 33 33 33 34 34 34 34 34 34 35 37 37 37 37 36 36 35 34 33 32 32 32 32 32 32 31 31
36 35 35 36 36 36 36 36 36 35 35 35 35 35 34 34 34 34 34 34 34 34 34 35 37 38 37 37 37 37 36 35 34 33 32 32 32 32 32 32 32 32
36 36 36 36 37 37 37 36 36 36 36 36 35 35 35 35 35 35 35 35 35 35 35 36 37 37 37 37 37 37 37 36 35 34 32 32 32 32 32 32 32 33
36 36 36 37 37 37 37 36 36 37 37 37 36 35 35 35 36 36 36 37 37 37 37 36 37 37 37 37 37 37 36 35 35 35 34 33 32 32 32 33 33 33
37 37 36 36 37 36 36 36 36 37 37 36 35 35 36 37 37 37 37 38 38 37 37 37 39 38 37 37 37 37 35 34 35 35 35 34 33 33 34 34 34 33
36 36 36 36 36 35 35 35 36 36 37 36 35 35 35 36 36 36 37 37 37 37 36 38 40 39 38 38 38 36 34 33 34 35 35 34 34 34 35 36 35 34
36 36 36 36 35 34 34 36 36 37 37 36 35 34 35 35 36 36 36 37 37 36 37 39 39 38 38 39 38 36 34 34 34 35 35 35 35 35 36 36 36 35
37 37 37 35 35 35 36 37 37 37 37 37 36 35 36 37 36 35 36 36 37 37 38 38 38 38 38 39 38 36 35 34 35 35 35 34 35 35 36 35 36 36
37 37 37 36 35 36 37 38 38 37 37 36 35 35 36 36 35 34 34 34 36 37 37 38 38 38 38 38 37 35 35 35 35 34 33 33 34 34 34 34 35 35
36 37 37 36 36 37 38 38 38 37 35 33 33 34 34 34 33 32 32 33 34 35 36 37 38 38 37 37 36 35 35 35 35 34 33 33 33 33 33 32 33 34
Wind_Direction
212 212 212 213 214 215 215 217 218 219 221 224 226 228 229 231 232 232 234 238 239 241 242 245 248 248 247 246 245 244 244 248 249 250 250 250 251 249 248 249 252 257
211 212 213 213 214 215 217 218 219 220 223 225 228 230 232 233 234 234 235 238 241 242 242 245 247 249 249 248 245 243 243 245 246 247 248 250 251 250 250 250 252 255
211 212 212 213 214 216 217 219 221 223 225 226 229 231 232 234 235 236 237 239 241 242 242 245 247 249 251 250 248 245 244 244 244 245 247 249 250 252 253 254 255 257
211 212 213 214 216 217 217 218 221 223 226 228 230 231 233 235 236 237 238 239 241 241 241 244 248 250 251 251 250 247 246 246 246 246 248 249 250 252 254 256 258 260
210 211 213 215 216 217 217 218 221 223 226 229 231 233 234 235 236 237 238 238 239 240 241 243 248 250 251 252 250 248 247 248 247 248 250 250 250 252 254 256 259 261
210 211 212 214 215 215 216 219 222 223 226 229 231 233 234 235 236 237 238 238 238 239 240 243 247 250 251 252 251 249 248 248 249 250 251 252 253 254 255 256 259 261
209 210 212 214 215 215 217 220 222 223 226 228 229 232 233 234 236 237 238 239 239 240 241 243 246 249 250 251 250 250 250 250 250 251 252 254 255 256 256 256 258 261
209 210 211 213 214 215 218 220 221 223 225 226 228 231 233 234 235 237 238 239 240 241 242 244 246 248 249 249 249 250 250 250 250 251 252 254 255 257 258 258 259 261
208 209 210 212 213 215 217 219 221 222 223 225 227 229 232 233 235 236 237 238 240 242 243 244 246 248 249 248 249 249 250 251 251 251 251 253 255 257 259 259 259 261
208 209 209 211 212 215 217 219 220 221 222 224 227 228 230 232 234 235 236 237 239 241 243 244 246 247 248 248 249 249 250 251 252 252 252 253 255 257 259 259 259 261
207 208 209 210 212 214 217 218 219 220 221 223 225 226 228 230 232 232 233 235 237 240 242 243 245 246 246 247 249 250 251 252 253 253 254 255 256 258 259 258 259 262
205 207 209 211 212 214 216 218 218 219 220 222 223 224 226 229 230 231 232 234 237 239 241 243 244 245 245 246 248 249 251 253 253 253 253 255 256 258 259 259 260 262
205 207 209 211 213 214 216 217 217 219 220 221 222 223 225 227 228 230 232 234 237 239 240 241 242 244 245 246 247 247 249 251 252 252 253 254 256 258 259 260 261 263
206 208 210 212 214 214 215 216 217 218 220 221 222 223 225 227 228 230 232 234 237 238 239 240 240 242 243 244 245 246 247 249 250 250 251 253 255 257 259 260 262 263
207 209 210 212 213 214 215 216 217 219 219 220 222 223 226 227 228 230 232 233 236 237 238 238 238 240 241 242 242 243 245 247 248 249 250 252 253 256 258 259 261 263
206 207 209 210 211 213 215 216 218 218 219 220 222 224 226 227 228 230 231 233 235 236 236 236 237 239 241 241 242 242 243 244 246 247 249 250 252 254 256 258 260 262
205 206 208 209 211 213 215 217 217 218 219 220 222 223 225 226 228 229 230 232 234 235 236 235 237 239 240 241 242 242 242 242 244 246 248 249 251 253 255 258 259 261
204 205 207 209 211 213 214 216 217 217 219 220 221 223 224 225 227 229 230 232 233 235 236 236 238 240 241 241 242 243 243 242 242 244 246 248 250 252 254 257 259 261
203 204 206 208 210 212 214 215 216 217 219 220 221 223 223 225 227 228 230 232 233 234 235 236 239 241 241 242 243 243 244 243 242 243 244 246 249 250 253 255 257 259
203 204 206 209 211 212 213 214 215 217 219 220 221 222 222 224 226 228 229 231 233 234 236 238 239 240 242 243 243 244 244 244 244 243 244 245 247 249 252 254 256 257
203 205 207 209 211 211 212 213 215 217 218 219 220 221 222 225 226 227 229 231 233 234 236 239 241 241 242 243 244 245 244 244 245 244 244 245 246 248 250 253 255 255
203 205 207 209 210 210 211 213 215 217 219 219 220 221 223 225 227 227 229 231 232 233 235 238 241 242 242 243 244 245 244 244 245 244 244 244 245 247 250 252 254 254
204 205 207 209 209 209 210 213 215 218 219 219 219 220 222 224 226 228 229 231 232 232 234 237 240 242 242 243 244 243 242 243 243 243 243 243 245 248 250 251 252 252
205 206 208 208 208 209 211 214 216 218 219 219 218 220 222 224 226 228 229 230 231 232 234 237 240 242 242 243 243 242 241 241 242 242 242 242 246 249 249 250 252 253
206 207 208 208 209 210 213 215 217 218 220 219 219 220 223 225 226 227 229 230 232 233 235 237 240 242 243 243 243 241 240 240 240 239 239 241 244 247 249 250 251 252
207 208 210 210 210 212 214 216 218 219 219 218 219 221 224 226 227 227 229 231 232 233 235 237 239 241 243 243 243 241 240 239 238 236 237 240 243 245 247 249 251 252
Height
809 811 813 816 818 820 822 825 827 829 831 833 835 836 838 839 841 843 845 846 848 849 850 851 852 854 855 856 857 858 859 860 860 861 862 862 863 863 864 865 865 866
806 809 811 813 816 818 820 822 825 827 828 831 832 834 836 838 840 842 843 845 846 847 848 850 851 852 853 854 855 856 857 858 859 860 860 860 861 862 862 863 864 865
804 806 809 811 813 815 817 820 823 825 827 829 830 832 834 836 838 840 842 843 844 846 847 848 849 850 851 852 853 854 855 856 857 858 859 859 860 860 861 862 862 863
801 804 806 808 810 812 815 818 820 823 825 827 828 830 832 834 836 837 839 841 843 844 845 846 847 848 849 851 852 852 853 854 855 856 857 857 858 859 859 860 860 861
798 801 803 806 808 811 813 815 817 820 822 824 826 828 830 832 833 835 837 839 840 842 843 844 845 846 847 849 849 850 851 852 853 854 855 856 856 857 857 858 858 859
796 798 801 804 806 808 810 812 814 817 819 821 824 826 828 829 831 832 834 836 838 839 841 842 843 844 845 846 847 848 849 850 851 852 853 853 855 855 856 856 856 857
793 795 798 801 803 806 808 809 812 814 816 819 821 824 825 827 828 830 831 833 835 837 838 840 841 842 843 844 845 846 846 848 849 850 851 851 852 853 854 854 854 854
789 792 795 798 801 803 805 807 809 811 814 817 819 821 823 824 826 827 829 831 832 834 835 837 838 840 841 842 843 843 844 845 846 847 848 849 850 851 851 852 852 852
787 790 793 795 798 800 802 804 806 809 811 814 816 818 820 822 824 825 827 828 829 831 832 834 836 837 838 839 840 841 842 843 844 845 846 847 847 848 848 849 850 850
784 787 790 792 795 797 799 801 804 806 809 811 813 815 817 819 821 823 825 826 827 828 829 831 833 834 836 837 837 839 839 840 842 843 844 844 845 845 846 847 848 847
781 784 787 789 792 794 796 799 801 804 806 808 810 812 814 816 818 820 822 823 824 825 826 828 829 831 833 834 835 836 837 838 839 840 841 842 843 843 844 845 845 845
778 781 783 786 788 791 793 796 799 801 803 805 807 809 811 813 815 817 819 820 821 822 823 824 826 828 829 831 832 834 835 835 836 837 838 839 840 841 841 842 842 843
774 776 779 782 784 787 790 792 795 797 799 802 804 806 808 810 812 814 815 817 818 819 820 822 823 825 826 828 829 830 832 832 833 834 836 836 837 838 839 840 840 840
769 772 775 777 780 784 786 789 791 794 796 798 801 802 804 806 808 810 812 813 815 816 817 819 820 822 823 824 826 827 828 829 830 832 833 834 835 835 836 837 837 838
765 768 771 774 778 781 783 786 788 790 792 795 797 799 800 803 805 807 809 810 811 813 814 816 817 818 818 820 822 823 825 826 827 829 830 831 832 833 834 834 835 835
762 765 769 772 775 777 780 782 785 787 789 791 793 795 797 800 802 804 806 807 808 809 811 812 813 813 814 816 818 820 822 823 824 826 827 828 830 830 831 831 832 833
759 763 766 768 771 774 776 779 781 784 786 788 790 792 794 796 799 800 802 803 805 806 807 808 808 809 810 812 814 816 818 820 821 823 824 826 827 827 828 829 829 830
756 760 762 765 768 770 773 775 778 780 782 784 786 788 790 792 794 796 797 799 801 802 803 804 804 805 807 809 811 813 815 817 818 820 821 822 823 824 825 826 827 827
753 756 758 761 763 766 769 772 774 776 778 780 782 784 786 788 789 791 793 795 797 798 799 800 800 802 803 805 807 809 811 813 815 817 818 819 820 821 822 823 823 824
749 752 754 757 759 762 765 768 770 772 773 776 778 780 782 783 785 787 788 790 792 793 795 796 796 798 800 801 803 805 807 810 811 813 814 815 817 818 818 819 820 820
745 747 750 753 756 759 762 764 766 767 769 772 774 775 777 778 780 782 783 785 787 789 791 791 792 794 796 797 799 801 804 806 808 809 810 811 813 814 815 815 816 817
741 744 747 749 753 756 758 760 762 763 765 768 770 771 773 774 776 778 779 780 782 785 786 786 787 790 792 793 795 798 800 802 803 805 806 807 808 810 810 811 812 813
737 740 743 746 749 752 754 756 757 759 761 764 766 767 769 770 772 773 775 776 778 780 781 781 783 785 787 789 791 794 796 798 799 800 801 802 804 805 806 807 807 809
733 736 739 742 745 747 749 751 753 755 757 759 761 763 764 766 767 769 771 772 774 775 776 777 779 781 783 784 787 789 792 793 794 795 797 798 799 800 801 802 803 804
729 732 735 738 741 743 745 746 748 750 752 755 757 759 760 762 764 766 767 768 770 771 773 774 775 776 778 780 782 785 787 789 790 791 792 794 795 796 797 798 799 800
726 729 731 734 737 739 740 742 744 746 749 752 754 756 757 759 761 762 763 764 766 767 769 770 771 772 774 776 778 780 782 784 786 787 788 789 791 792 793 794 795 796